Weather History for Pakanbaru, Indonesia

Change the Weather History Date:

Thursday, July 11, 2013

  Actual Average Record
Temperature  
Mean Temperature 82 °F -  
Max Temperature 93 °F - - ()
Min Temperature 72 °F - - ()
Cooling Degree Days 18    
Growing Degree Days 32 (Base 50)    
Moisture  
Dew Point 75 °F    
Average Humidity 68    
Maximum Humidity 96    
Minimum Humidity 51    
Precipitation  
Precipitation 0.00 in - - ()
Sea Level Pressure  
Sea Level Pressure 29.76 in    
Wind  
Wind Speed 1 mph ()    
Max Wind Speed 7 mph    
Max Gust Speed -    
Visibility 5.8 miles    
Events      
T = Trace of Precipitation, MM = Missing Value Source: Averaged Metar Reports

Daily Weather History Graph

Daily Weather History Graph

Search for Another Location

Airport:

Trip Planner

Search our weather history database for the weather conditions in past years. The results will help you decide how hot, cold, wet, or windy it might be!

Date:

Astronomy

Jul. 11, 2013 Rise Set
Actual Time 6:15 AM WIB 6:24 PM WIB
Civil Twilight 5:53 AM WIB 6:46 PM WIB
Nautical Twilight 5:27 AM WIB 7:12 PM WIB
Astronomical Twilight 5:00 AM WIB 7:38 PM WIB
Moon 8:18 AM WIB (7/11) 8:40 PM WIB (7/11)
Length of Visible Light 12h 53m
Length of Day
12h 08m
Waxing Crescent, 8% of the Moon is Illuminated
Jul 11
Waxing Crescent
Jul 16
First Quarter
Jul 23
Full
Jul 30
Last Quarter
Aug 7
New

Hourly Weather History & Observations

Time (WIB) Temp. Heat Index Dew Point Humidity Pressure Visibility Wind Dir Wind Speed Gust Speed Precip Events Conditions
1:00 AM 76 °F - 71 °F 82% 29.79 in 5 mi Calm Calm - -   Partly Cloudy
4:00 AM 75 °F - 71 °F 85% 29.76 in 5 mi Calm Calm - -   Clear
6:00 AM 82 °F - 74 °F 70% 29.81 in 6 mi South 5.8 mph - -   Scattered Clouds
7:00 AM 73 °F - 72 °F 96% 29.78 in 6 mi Calm Calm - -   Scattered Clouds
9:00 AM 82 °F - 74 °F 70% 29.81 in 6 mi South 5.8 mph - -   Scattered Clouds
9:30 AM 82.4 °F 88.2 °F 73.4 °F 74% 29.80 in - Calm Calm - N/A   Clear
10:00 AM 82 °F - 74 °F 70% 29.81 in 6 mi South 5.8 mph - -   Scattered Clouds
10:00 AM 82.4 °F 88.2 °F 73.4 °F 74% 29.80 in - Calm Calm - N/A   Clear
11:00 AM 86.0 °F 95.1 °F 75.2 °F 70% 29.80 in 6.2 mi Calm Calm - N/A   Scattered Clouds
12:00 PM 89.6 °F 99.8 °F 75.2 °F 62% 29.77 in 6.2 mi ESE 6.9 mph - N/A   Scattered Clouds
1:00 PM 91 °F - 76 °F 52% 29.76 in 6 mi Calm Calm - -   Partly Cloudy
1:00 PM 91.4 °F 102.5 °F 75.2 °F 59% 29.74 in 6.2 mi ESE 5.8 mph - N/A   Scattered Clouds
2:00 PM 91.4 °F 100.1 °F 73.4 °F 55% 29.74 in 6.2 mi Calm Calm - N/A   Scattered Clouds
3:00 PM 93.2 °F 102.4 °F 73.4 °F 52% 29.71 in 6.2 mi South 5.8 mph - N/A   Scattered Clouds
4:00 PM 91 °F - 75 °F 51% 29.71 in 6 mi Calm Calm - -   Partly Cloudy
4:00 PM 91.4 °F 102.5 °F 75.2 °F 59% 29.71 in 6.2 mi Calm Calm - N/A   Scattered Clouds
5:00 PM 89.6 °F 102.2 °F 77.0 °F 66% 29.71 in 6.2 mi Calm Calm - N/A   Scattered Clouds
6:00 PM 89.6 °F 102.2 °F 77.0 °F 66% 29.71 in 6.2 mi Calm Calm - N/A   Partly Cloudy
7:00 PM 87 °F - 77 °F 65% 29.74 in 6 mi Calm Calm - -   Scattered Clouds
7:00 PM 87.8 °F 99.7 °F 77.0 °F 70% 29.74 in 5.6 mi Calm Calm - N/A   Partly Cloudy
9:00 PM 84.2 °F 92.3 °F 75.2 °F 74% 29.77 in 5.6 mi Calm Calm - N/A   Scattered Clouds
10:00 PM 83 °F - 76 °F 73% 29.77 in 5 mi Calm Calm - -   Scattered Clouds
10:00 PM 82.4 °F 89.5 °F 75.2 °F 79% 29.77 in 5.0 mi Calm Calm - N/A   Scattered Clouds